Find Starlink 33898

NORAD ID: 64002 Int'l Des: 2025-101 Owner: SPXS Country: US Constellation: starlink operational
LEOCIRCULAR

Live Position

Loading 3D Globe...

About Starlink 33898

Description loading...

Upcoming Passes

Passes for default location (London). Set your location on the main map for personalized predictions.

Altitude History

Loading altitude history...

Two-Line Element Set

1 64002U 25101J 26107.15199671 .00014519 00000-0 53576-3 0 9995
2 64002 43.0017 141.0856 0001283 249.6250 110.4464 15.27599511 52930
Epoch: Apr 17, 2026 • Age: 12 hours

Current Status

Altitude 485.6 km
Velocity 7.62 km/s
Sub-Earth Point -14.42°S, 34.8°E
Launch Date May 14, 2025
Age 0.9 years
Type internet

Technical Details

Classification Payload
Mass 575.00 kg
Dry Mass 530.00 kg
Total Mass 575.00 kg
Length 0.30 m
Diameter 4.10 m
Span 29.00 m
Shape Box + pan
Manufacturer SPXS
Bus Type Starlink V2MO
Phase Status In Orbit
Owner/State SPXS/US

Most Searched